Theta_e
323 322 321 321 318 315 314 313 313 312 311 312 312 313 315 315 314 314 321 322 327 337 352 354 352 353 353 352 354 354 360 345 347 347 345 344 342 339 340 341 342 340 340 341 340
324 323 321 320 319 315 314 314 313 312 311 312 312 313 315 316 315 319 318 318 323 337 353 353 353 355 355 352 351 352 349 345 346 346 346 345 343 341 341 341 341 341 340 340 341
325 324 323 321 319 316 314 314 314 312 312 312 312 313 316 315 327 323 317 323 328 349 352 353 353 354 353 351 352 349 346 345 344 345 345 344 344 344 341 342 341 340 339 340 341
326 325 323 322 320 317 314 314 314 312 313 313 313 314 316 315 332 325 317 325 327 349 347 351 351 352 351 352 350 348 346 347 345 345 345 346 345 346 339 340 341 340 341 344 344
326 325 324 323 321 317 314 314 313 313 313 313 313 314 315 328 329 316 322 320 325 336 347 347 350 350 351 350 349 350 349 348 345 345 345 346 347 346 341 340 342 342 342 345 345
326 324 324 323 322 317 314 313 313 314 313 313 313 315 322 329 327 317 326 322 339 341 344 344 344 344 350 351 352 349 349 348 346 346 346 347 347 347 343 341 343 343 343 344 345
325 324 324 323 322 315 313 313 314 314 313 312 313 316 326 328 327 326 329 329 329 332 333 340 338 338 350 351 350 349 349 349 347 347 348 347 349 350 345 342 342 343 343 343 345
325 324 323 323 319 314 317 320 315 314 313 312 314 321 328 327 327 324 324 323 323 326 330 338 334 336 349 350 349 351 351 353 349 348 348 348 353 349 347 344 342 341 342 342 344
323 323 322 323 316 317 321 321 313 313 312 313 317 326 326 321 325 324 322 322 322 326 333 332 331 338 345 351 353 351 354 353 354 348 349 350 355 349 348 346 344 341 340 341 343
325 322 321 321 319 321 322 319 318 315 315 315 324 327 326 324 325 324 322 320 323 327 335 332 332 338 343 350 359 355 354 352 354 351 350 350 352 350 348 348 345 342 341 341 342
326 324 320 321 320 321 322 324 327 326 322 326 323 327 325 323 323 323 323 321 323 329 336 333 335 336 338 342 348 348 349 350 350 350 350 351 352 351 349 349 347 344 342 342 342
325 326 323 321 320 319 321 326 324 325 326 322 323 325 324 322 323 325 323 324 325 330 334 333 332 335 338 338 342 345 347 349 347 348 348 351 351 351 350 349 349 347 344 343 340
323 326 326 321 319 320 325 324 321 322 327 324 322 324 324 323 324 326 325 325 326 331 333 333 332 333 334 337 339 340 340 342 341 345 345 347 348 352 351 349 349 349 346 345 342
324 323 327 320 321 324 325 323 322 323 331 327 324 324 324 324 325 325 325 326 327 330 333 330 331 331 332 335 338 340 339 341 338 342 348 349 347 350 351 351 350 349 349 347 345
324 324 326 323 328 324 325 323 322 324 337 327 325 325 325 326 326 325 325 326 327 327 330 330 329 330 328 330 333 335 336 339 340 341 340 342 340 347 348 346 349 349 348 348 348
323 324 324 326 321 326 323 323 322 328 333 328 326 325 327 326 326 326 326 326 325 327 327 329 327 327 328 328 328 329 332 336 339 340 342 342 340 341 351 351 350 349 349 349 349
321 323 324 321 329 324 323 324 329 331 331 329 327 326 327 327 326 328 327 327 327 327 328 327 327 326 325 325 327 327 329 335 342 343 341 340 342 341 347 347 348 350 350 351 349
319 323 325 322 326 323 324 329 332 332 331 328 327 326 327 328 326 326 328 329 328 328 329 328 328 327 326 326 327 327 328 331 340 341 341 341 343 343 348 347 348 350 352 354 351
318 327 328 327 324 323 326 331 334 333 330 328 326 327 327 328 327 327 327 329 329 328 329 329 330 328 328 327 327 328 328 329 330 332 335 341 344 346 347 346 346 349 350 350 345
317 328 329 325 323 323 328 329 332 328 328 329 329 327 328 327 327 328 328 328 329 329 328 328 329 329 327 326 327 327 329 329 328 331 332 333 335 340 347 345 348 347 349 348 349
321 327 327 324 322 323 329 331 331 328 327 328 329 330 329 330 328 328 328 328 327 328 328 327 328 329 327 326 327 327 327 328 330 330 331 332 334 336 345 343 347 347 351 351 350
324 328 328 324 326 327 330 330 326 326 325 327 329 330 330 330 330 329 329 329 327 327 327 328 328 328 328 328 327 328 328 328 330 332 331 332 335 341 344 347 343 348 352 354 353
321 322 325 325 328 330 329 328 327 326 327 326 327 329 330 330 330 329 329 328 325 325 327 327 326 327 328 328 327 327 328 329 329 330 332 332 333 344 345 347 346 348 352 354 355
320 324 327 328 325 328 330 331 330 327 327 327 328 329 329 329 330 330 329 328 325 324 322 326 327 327 328 330 329 328 327 327 328 330 331 331 335 347 346 346 348 349 352 354 355
319 324 327 328 328 330 329 329 330 331 329 328 330 331 331 331 330 330 329 329 325 324 323 325 327 327 327 327 328 328 328 327 327 328 329 330 330 331 341 343 346 349 353 354 356
316 321 326 326 323 326 326 328 329 329 330 331 331 330 332 332 332 331 331 330 329 327 326 325 326 326 327 327 327 327 327 327 328 328 328 328 329 330 332 340 344 350 352 354 353
316 318 320 318 319 323 325 326 326 328 328 328 329 330 331 330 329 329 329 328 329 329 329 329 327 328 328 328 328 329 328 327 326 327 328 328 329 330 330 337 343 349 351 351 350
Wind_Speed
11 10 8 7 6 5 5 6 6 5 3 2 2 3 2 1 2 4 2 6 5 7 8 4 4 4 3 7 10 7 6 10 21 15 14 12 17 18 15 12 5 9 20 22 19
12 11 9 8 7 6 6 5 6 5 3 2 2 3 2 2 4 6 10 8 7 9 8 5 5 5 8 7 9 8 4 13 13 6 14 12 14 14 14 14 16 21 20 21 19
11 11 10 9 7 7 6 5 6 4 2 2 2 3 4 5 4 5 9 7 9 11 6 3 3 7 8 10 8 10 8 12 8 12 13 12 11 6 15 14 17 21 21 20 18
11 12 12 10 8 7 6 5 5 3 2 1 3 5 7 9 1 4 9 10 11 9 5 5 7 15 2 8 4 2 4 7 10 9 12 12 14 13 15 18 17 19 19 17 16
12 13 13 12 10 8 6 5 3 1 1 1 3 6 10 7 4 8 13 10 10 6 7 5 9 9 4 5 11 3 5 4 9 7 14 9 14 13 16 17 18 18 18 16 15
13 14 14 13 10 8 6 4 1 1 2 3 5 8 6 9 4 9 12 10 8 8 7 5 4 6 8 6 15 5 3 6 12 10 9 11 14 14 14 17 19 17 16 15 13
14 14 15 14 10 8 4 1 0 2 3 4 7 10 5 4 6 10 11 10 9 8 6 6 5 10 3 5 4 5 6 7 11 12 9 6 10 15 15 16 17 16 15 13 13
15 17 16 13 10 5 2 3 1 2 3 5 9 8 2 6 7 12 12 10 10 8 6 6 7 10 10 2 4 14 13 1 13 7 6 9 7 14 17 16 15 15 14 14 14
15 16 15 12 7 3 3 3 4 3 4 8 9 4 6 9 8 10 13 11 11 9 8 6 7 13 6 11 5 4 5 12 12 4 7 4 14 14 16 16 15 15 15 15 15
19 18 15 11 4 3 5 5 6 6 8 8 6 7 9 12 11 10 11 11 13 11 10 11 10 10 11 10 1 7 9 6 7 8 7 9 9 12 13 15 15 16 17 16 17
20 18 16 10 2 2 2 2 1 3 10 7 12 3 11 10 11 10 12 13 14 14 15 15 11 12 14 7 18 7 10 7 8 18 4 9 9 11 14 14 15 17 17 17 17
19 18 16 9 0 2 3 4 4 3 9 7 6 4 6 12 10 12 15 15 15 15 17 9 13 13 4 1 8 12 9 8 5 1 7 5 4 12 15 13 16 17 18 17 17
19 17 15 8 2 1 2 1 3 3 9 10 11 11 12 12 12 17 18 18 15 18 18 14 7 5 6 9 10 10 11 6 6 4 9 6 11 16 15 15 14 15 18 17 17
20 17 12 4 2 3 2 3 4 3 6 14 12 9 11 12 10 15 20 14 12 17 15 14 13 7 9 13 11 14 12 7 7 9 1 6 2 13 16 14 16 17 18 20 20
21 18 13 4 5 4 3 3 3 3 5 13 16 10 14 17 15 15 18 15 13 13 12 15 15 11 14 15 14 14 5 8 12 11 11 8 6 10 9 9 14 16 18 18 23
21 18 14 5 5 6 4 4 2 7 4 10 12 12 16 17 11 15 18 15 14 13 15 18 7 11 16 15 13 10 11 12 12 12 12 11 6 1 11 8 8 8 12 14 20
20 17 12 3 1 4 5 5 7 8 10 11 13 16 18 13 13 13 17 18 12 12 15 17 19 13 15 13 16 14 14 11 11 11 11 8 9 2 9 9 6 4 3 7 16
18 15 8 4 7 4 6 9 9 5 10 3 7 14 17 14 14 15 16 17 20 16 13 13 16 21 14 18 15 14 17 13 11 12 11 12 7 9 17 16 11 5 4 4 9
18 10 4 4 6 7 11 11 8 7 2 7 9 13 16 16 9 15 19 18 19 20 15 9 15 5 20 15 18 16 15 20 20 19 13 6 8 12 13 12 6 9 8 3 4
19 7 8 6 6 8 10 17 13 3 6 6 14 15 16 18 16 15 15 15 19 19 18 8 9 12 14 10 18 19 11 12 11 17 17 15 12 4 16 13 10 7 5 5 3
11 9 4 2 5 12 11 15 14 6 10 11 15 17 15 15 19 18 11 15 9 17 17 19 9 10 10 13 17 13 15 13 17 13 14 12 10 4 18 15 14 10 7 6 6
6 6 2 3 11 13 13 18 6 11 12 15 10 17 16 15 18 20 21 16 16 19 19 18 10 14 15 14 19 19 18 20 13 15 13 12 4 6 13 13 7 14 8 7 7
10 14 7 8 8 11 16 16 13 13 16 12 16 14 17 17 17 17 19 18 13 13 15 16 11 13 14 14 10 12 16 16 20 18 17 13 11 13 12 13 6 13 10 8 8
8 5 10 10 17 16 16 15 14 15 16 18 15 15 16 17 17 16 17 18 12 16 1 14 19 15 14 16 15 22 17 19 19 15 15 16 11 14 13 14 14 11 9 9 9
6 5 5 7 6 7 12 13 16 14 18 13 16 16 17 17 19 20 18 16 15 14 11 15 18 19 20 20 17 11 16 21 21 18 19 15 16 14 16 12 13 14 13 11 12
8 10 7 16 18 14 14 16 16 16 19 16 16 16 18 19 20 18 20 19 20 18 16 20 19 20 23 23 20 22 20 16 17 20 19 18 19 15 8 12 13 13 16 15 12
9 12 10 11 14 13 13 16 17 15 15 21 20 15 14 11 13 16 20 15 17 16 19 20 17 18 22 21 22 25 21 20 19 19 16 17 12 13 9 8 14 14 17 18 16
Wind_Direction
9 5 359 352 345 339 336 323 315 309 290 276 259 237 227 182 198 150 214 204 203 183 142 159 185 214 240 274 268 251 267 78 106 100 112 112 89 91 119 105 93 107 136 136 144
8 4 358 352 347 338 335 323 314 305 285 281 251 205 191 155 174 208 233 213 186 171 146 167 177 204 237 262 263 195 291 65 69 100 96 86 103 130 115 110 107 105 120 138 145
4 2 359 352 345 336 333 325 316 302 276 262 226 175 167 154 191 156 219 189 167 151 181 249 266 263 236 224 260 3 96 115 116 90 113 111 109 86 120 116 131 133 138 144 149
359 358 356 350 341 336 328 324 311 280 264 231 187 165 170 176 180 209 168 166 167 167 213 238 239 259 214 201 195 176 80 41 93 137 120 99 97 64 68 114 133 139 143 145 153
357 353 351 346 339 336 331 320 303 254 252 197 179 169 158 214 72 175 160 153 169 190 201 235 260 304 293 143 193 241 98 115 125 116 105 137 86 93 101 118 134 141 146 151 150
357 352 348 344 340 336 333 322 272 223 196 165 165 166 181 242 130 169 163 156 177 182 206 224 328 316 294 224 63 153 314 161 154 135 143 139 127 117 118 131 137 148 154 156 141
1 354 349 345 342 339 348 359 209 183 169 161 166 173 236 83 149 164 176 172 193 195 223 247 280 280 290 199 265 152 252 172 138 163 157 179 160 113 138 140 146 158 162 158 156
2 355 350 349 345 357 45 58 75 146 150 151 156 160 79 147 166 179 179 194 204 209 226 244 278 277 270 175 229 244 202 229 114 194 152 205 234 137 152 150 157 160 165 167 165
7 358 355 353 360 38 30 61 74 110 126 137 143 199 138 174 178 185 193 201 205 210 225 252 269 257 195 209 164 50 88 69 300 215 141 193 216 150 170 157 162 165 165 175 171
6 4 358 359 21 47 78 87 75 101 119 135 189 232 181 196 173 183 189 200 195 201 217 233 235 231 232 219 180 302 233 91 266 275 207 181 116 147 183 170 167 170 171 174 173
2 2 357 355 39 44 159 331 217 174 208 305 185 310 146 155 164 183 188 182 191 203 220 205 229 225 213 198 168 217 232 231 157 255 268 172 149 177 178 197 176 172 180 180 180
1 359 355 353 89 82 86 267 344 328 225 216 215 222 169 171 176 178 172 187 201 207 221 190 237 248 33 46 235 231 267 155 262 130 294 229 211 176 172 205 186 189 180 186 186
357 358 356 353 206 174 308 261 322 301 252 169 196 202 186 195 200 181 190 209 200 214 208 234 198 165 210 209 240 243 268 121 309 144 248 268 238 161 177 178 212 208 186 192 191
352 353 357 9 112 218 248 271 312 256 263 150 193 206 186 200 218 190 197 199 211 222 213 233 251 214 223 243 230 264 182 278 258 263 354 256 295 215 171 184 184 206 204 193 190
345 345 343 303 216 240 214 307 280 244 264 150 158 141 178 202 126 186 196 211 235 221 232 221 237 205 236 236 233 258 348 252 252 264 277 200 238 134 171 206 186 197 202 210 200
342 340 339 334 242 231 222 287 270 232 232 158 156 191 184 213 199 153 193 220 232 234 223 252 210 250 244 237 249 273 255 252 252 258 259 232 249 307 100 109 108 158 202 210 216
335 334 333 240 65 254 228 235 233 250 132 158 181 185 197 190 187 180 195 201 206 209 218 219 230 224 236 241 226 225 236 233 223 222 241 234 199 304 149 106 70 78 251 241 235
335 327 310 274 248 230 211 233 249 321 181 98 197 190 205 189 203 198 200 213 219 227 260 215 212 209 194 230 212 222 231 243 229 244 244 163 212 223 99 109 117 107 93 340 218
335 331 310 274 237 203 227 227 237 261 278 193 204 207 206 212 227 199 219 218 219 223 241 247 235 145 202 213 237 215 221 254 270 279 286 177 229 143 152 148 152 132 141 61 37
339 306 237 267 202 204 237 248 279 307 307 268 222 211 220 207 199 215 205 224 232 209 229 260 268 177 200 231 223 240 242 230 239 256 264 257 244 306 157 171 137 155 114 141 143
342 289 163 230 201 227 239 247 247 233 245 255 250 255 230 237 209 230 222 221 225 216 206 239 230 187 169 207 225 209 239 244 266 225 242 250 260 305 167 156 157 136 131 162 192
310 276 163 209 233 234 244 251 284 277 227 258 270 279 260 243 257 213 240 233 192 230 204 220 228 239 207 224 220 247 219 226 241 232 272 284 297 65 80 113 162 126 143 139 145
310 285 239 228 251 241 242 251 268 262 263 238 243 243 256 260 255 251 246 242 171 227 217 213 228 245 239 220 191 239 239 254 230 244 251 244 243 121 121 125 133 140 149 150 148
301 292 205 217 257 278 287 286 256 222 264 273 267 265 258 253 255 248 247 240 182 224 66 251 236 234 244 221 218 203 225 241 244 248 244 235 225 156 172 167 162 157 163 156 152
257 287 3 289 253 290 279 276 277 274 241 242 265 249 262 252 251 247 244 261 185 208 231 232 242 243 253 267 274 261 219 215 237 241 251 252 244 247 195 190 166 158 159 158 148
294 319 321 279 280 280 266 263 267 264 265 267 234 258 267 247 261 261 253 232 250 203 220 233 235 247 254 257 256 253 252 235 242 229 240 253 262 276 123 150 165 170 169 171 163
280 280 271 277 272 265 260 266 268 258 265 273 279 273 274 309 325 309 304 313 293 267 214 229 238 236 245 244 248 251 240 240 244 247 226 243 243 246 221 170 178 187 189 178 171